This is the latest recevied weather packets stored in our database for station/object WD4ITN. If no packets are shown the sender has not sent any weather packets the latest 10 day(s).
| Time | Temp. | Humidity | Pressure | Rain* | Wind** | Luminosity | Snow |
|---|---|---|---|---|---|---|---|
| 1777984693 | 16.67° C | 64% | 1012.6 hPa | 0 mm | - | - | - |
| 1777984417 | 16.11° C | 66% | 1012.7 hPa | 0 mm | - | - | - |
| 1777984107 | 16.11° C | 66% | 1012.7 hPa | 0 mm | - | - | - |
| 1777983805 | 16.11° C | 66% | 1012.8 hPa | 0 mm | - | - | - |
| 1777983507 | 15.56° C | 69% | 1012.9 hPa | 0 mm | - | - | - |
| 1777983202 | 15° C | 67% | 1012.9 hPa | 0 mm | - | - | - |
| 1777982902 | 15° C | 69% | 1013 hPa | 0 mm | - | - | - |
| 1777982600 | 15° C | 72% | 1013.1 hPa | 0 mm | - | - | - |
| 1777982297 | 14.44° C | 73% | 1013.2 hPa | 0 mm | - | - | - |
| 1777981998 | 14.44° C | 73% | 1013.2 hPa | 0 mm | - | - | - |
| 1777981717 | 13.89° C | 75% | 1013.2 hPa | 0 mm | - | - | - |
| 1777981409 | 13.33° C | 74% | 1013.1 hPa | 0 mm | - | - | - |
| 1777981105 | 12.78° C | 78% | 1013 hPa | 0 mm | - | - | - |
| 1777980797 | 12.22° C | 82% | 1013 hPa | 0 mm | - | - | - |
| 1777980496 | 11.11° C | 85% | 1013 hPa | 0 mm | - | - | - |
| 1777980213 | 10° C | 88% | 1013 hPa | 0 mm | - | - | - |
| 1777979916 | 9.44° C | 92% | 1013 hPa | 0 mm | - | - | - |
| 1777979604 | 8.33° C | 95% | 1012.8 hPa | 0 mm | - | - | - |
| 1777979306 | 7.78° C | 95% | 1012.9 hPa | 0 mm | - | - | - |
| 1777978998 | 7.78° C | 96% | 1012.8 hPa | 0 mm | - | - | - |
| 1777978701 | 7.78° C | 96% | 1012.7 hPa | 0 mm | - | - | - |
| 1777978405 | 7.22° C | 96% | 1012.8 hPa | 0 mm | - | - | - |
| 1777978100 | 7.22° C | 96% | 1012.8 hPa | 0 mm | - | - | - |
| 1777977798 | 7.22° C | 95% | 1012.7 hPa | 0 mm | - | - | - |
| 1777977518 | 7.22° C | 96% | 1012.6 hPa | 0 mm | - | - | - |
* Rain since midnight (hover to see other rain measurements)
** Current wind speed in m/s (hover to see current wind gust speed)